Regional Weather Roundup
Issued by NWS

Home | Current Version | Previous Version | Text Only | Print | Product List | Glossary On
Versions: 1 2 3 4 5 6 7 8 9 10 11 12 13 14 15 16 17 18 19 20 21 22 23 24 25 26 27 28 29 30 31 32 33 34 35 36 37 38 39 40 41 42 43 44 45 46 47 48 49 50
000
ASUS44 KLIX 300201
RWRLA
LOUISIANA WEATHER ROUNDUP
NATIONAL WEATHER SERVICE NEW ORLEANS LA
900 PM CDT TUE JUL 29 2014

NOTE: "FAIR" INDICATES FEW OR NO CLOUDS BELOW 12,000 FEET WITH NO
      SIGNIFICANT WEATHER AND/OR OBSTRUCTIONS TO VISIBILITY.
      SKY/WX - SKY CONDITION AND SIGNIFICANT WEATHER.
      TMP - AIR TEMPERATURE.    DP   - DEWPOINT TEMPERATURE.
      RH  - RELATIVE HUMIDITY.  PRES - PRESSURE.
      HX  - HEAT INDEX.         WCI  - WIND CHILL INDEX.

*  THESE STATIONS ARE NOT NWS OR FAA STATIONS AND ARE NOT UNDER
   NWS QUALITY CONTROL.

LAZ040-048-061>063-065-066-069-300300-
SOUTHEAST LOUISIANA

CITY           SKY/WX    TMP DP  RH WIND       PRES   REMARKS
N.O. AUDUBON     N/A     82  67  59 MISG        N/A
N.O. INTL ARPT MOCLDY    81  63  54 N6        30.01S
N.O. LAKEFRONT CLEAR     84  65  52 N10       30.01S
N.O. DOWNTOWN* FAIR      84  61  45 N6        30.01S
SLIDELL        CLEAR     77  70  79 CALM      30.00S
BATON ROUGE    CLEAR     77  69  76 CALM      30.02S
BOOTHVILLE     PTCLDY    79  71  76 CALM      30.01S
BELLE CHASSE   MOCLDY    74  67  78 CALM      30.01S
BOGALUSA*      FAIR      76  69  78 NW3       30.03R
GALLIANO*      NOT AVBL
NEW ROADS*     FAIR      77  70  79 CALM      30.03R
GONZALES*      FAIR      74  72  92 CALM      30.02R
HAMMOND*       PTCLDY    77  68  73 CALM      30.03S
HOUMA*         CLEAR     78  69  72 N3        30.01F
PORT FOURCHON* PTCLDY    84  68  58 N9        30.03R

$$

LAZ041-044-053-054-300300-
SOUTHWEST LOUISIANA

CITY           SKY/WX    TMP DP  RH WIND       PRES   REMARKS
LAKE CHARLES   CLEAR     80  69  69 E6        30.03S
LAFAYETTE      CLEAR     78  73  84 CALM      30.03S
PATTERSON      CLEAR     79  72  78 NW5       30.06S
SALT POINT       N/A     82  72  71 CALM      30.02S
NEW IBERIA     CLEAR     78  70  76 N3        30.04R
CHENAULT AIRPK CLEAR     81  66  61 CALM      30.04

$$

LAZ027-028-300300-
CENTRAL LOUISIANA

CITY           SKY/WX    TMP DP  RH WIND       PRES   REMARKS
FORT POLK      CLEAR     78  71  79 NW3       30.05R
ALEXANDRIA INT CLEAR     77  70  79 CALM      30.02R
ALEXANDRIA     CLEAR     76  70  82 CALM      30.04R

$$

LAZ001-002-300300-
NORTHWEST LOUISIANA

CITY           SKY/WX    TMP DP  RH WIND       PRES   REMARKS
SHREVEPORT     MOCLDY    83  63  50 NE9       30.05S
BARKSDALE AFB  CLEAR     79  66  64 NE5       30.06S
DTN SHREVEPORT CLEAR     81  64  56 NE5       30.06S

$$

LAZ014-016-300300-
NORTHEAST LOUISIANA

CITY           SKY/WX    TMP DP  RH WIND       PRES   REMARKS
MONROE         CLEAR     76  65  68 E6        30.07S
TALLULAH       CLEAR     72  62  71 N6        30.06S

$$




USA.gov is the U.S. government's official web portal to all federal, state and local government web resources and services.